Location: Brantley
(31.5822°N, 86.2569°W)
Time: 16:59:22
(UTC+00:00)

Injun/Solrad 3 - Pass Details

Date: 23 February 2026
Orbit: 871 x 985 km, 66.8° (Epoch: 11 March)

Event Time Altitude Azimuth Distance (km) Brightness Sun altitude
Rises 01:58:59 0° 325° (NW) 3,610 11.5 -30.7°
Reaches altitude 10° 02:01:38 10° 319° (NW) 2,679 10.8 -31.3°
Maximum altitude 02:07:26 41° 251° (WSW) 1,372 9.0 -32.5°
Enters shadow 02:10:23 26° 200° (SSW) 1,812 9.4 -33.1°
Drops below altitude 10° 02:13:19 10° 183° (S) 2,719 - -33.8°
Sets 02:16:02 0° 176° (S) 3,669 - -34.3°
